Location: Hope
(40.9110°N, 74.9680°W)
Time: 03:57:57
(UTC-05:00)

ISS - Visible Passes

Search period start: 18 February 2018 00:00
Search period end: 28 February 2018 00:00
Orbit: 403 x 407 km, 51.6° (Epoch: 19 February)

Date Brightness Start Highest point End Pass type
(mag) Time Alt. Az. Time Alt. Az. Time Alt. Az.
25 Feb -1.3 05:50:38 10° S 05:53:15 22° SE 05:55:51 10° E visible
26 Feb -0.7 04:59:56 10° SSE 05:01:10 12° SE 05:02:25 10° ESE visible
27 Feb -3.2 05:41:45 10° SW 05:44:57 55° SE 05:48:10 10° ENE visible
